[Date Prev][Date Next][Thread Prev][Thread Next] - [Date Index][Thread Index][Author Index]

2 Line ISS Keps 2-18



ISS
1 25544U 98067A   02049.16127650  .00069763  00000-0  78670-3 0   907
2 25544  51.6384 291.1901 0005062  90.1399  48.1092 15.61858118185468


----
Via the sarex mailing list at AMSAT.ORG courtesy of AMSAT-NA.
To unsubscribe, send "unsubscribe sarex" to Majordomo@amsat.org



AMSAT Top AMSAT Home